Temperature
13 12 12 12 12 12 12 12 12 11 11 11 11 11 11 11 11 11 11 11 11 11 11 11 11 11 11 11 11 11 11 11 11 11 11 11 11 11 11 11 11 11 10
12 12 12 12 12 12 12 11 11 11 11 11 11 11 10 10 11 11 11 11 11 11 11 11 11 11 11 11 11 11 11 11 11 11 11 11 11 11 11 10 10 10 10
12 12 12 12 12 11 11 11 11 11 10 10 10 10 10 10 10 10 10 10 10 11 11 11 10 10 10 10 10 10 10 10 10 10 10 10 10 10 10 10 10 10 10
12 12 12 11 11 11 11 11 10 10 10 10 10 10 10 10 10 10 10 10 10 10 10 10 10 10 10 10 10 10 10 10 10 10 10 10 10 10 10 10 10 10 10
11 11 11 11 11 11 11 10 10 10 10 10 10 10 9 9 10 9 9 9 9 10 10 10 10 10 10 9 9 9 10 10 9 9 9 9 9 9 9 9 9 9 9
11 11 11 11 11 10 10 10 10 10 10 9 9 9 9 9 9 9 9 9 9 9 9 9 9 9 9 9 9 9 9 9 9 9 9 9 9 9 9 9 9 9 9
11 11 10 10 10 10 10 10 10 9 9 9 9 8 8 8 8 8 8 9 9 9 9 9 9 9 9 9 9 9 9 9 9 9 8 8 8 8 8 8 8 8 8
10 10 10 10 10 10 10 9 9 9 9 9 9 8 8 8 8 8 8 8 8 8 8 8 8 8 9 9 8 8 8 8 8 8 8 8 8 8 8 8 8 8 8
10 10 10 10 10 10 10 9 9 9 9 9 9 8 8 7 7 7 7 8 8 8 8 8 8 8 8 8 8 8 8 8 8 8 8 8 8 7 7 7 7 7 8
10 9 9 9 9 9 9 9 9 9 9 9 8 8 8 8 8 7 7 7 7 7 7 7 7 8 8 8 8 8 8 8 8 8 7 7 7 7 7 7 7 7 7
9 9 9 9 9 9 9 9 9 9 8 8 8 8 8 8 8 8 7 7 7 7 7 7 7 7 7 7 7 7 7 7 7 7 7 7 7 7 7 7 7 7 7
9 9 9 9 9 9 8 8 8 8 8 8 8 8 8 8 8 8 7 7 7 7 7 7 7 7 7 7 7 7 7 7 7 7 7 7 7 7 7 6 6 7 7
8 8 8 8 8 8 8 8 8 8 8 7 7 7 7 8 8 7 7 7 6 6 6 6 7 7 7 7 7 7 7 7 6 6 6 6 6 6 6 6 6 6 6
9 8 8 8 8 8 8 7 7 7 7 7 7 7 7 7 7 7 7 7 6 6 6 6 6 6 6 7 7 7 6 6 6 6 6 6 6 6 6 6 6 6 6
8 8 8 8 7 7 7 7 7 7 7 7 7 7 7 7 7 7 6 6 6 6 5 6 6 6 6 6 6 6 6 6 6 6 6 6 6 6 6 6 6 6 6
8 8 7 7 7 7 7 7 7 7 6 6 6 6 6 6 6 6 6 6 6 6 5 6 6 6 6 6 6 6 6 6 5 5 5 5 5 5 5 5 5 5 5
7 7 7 7 7 7 7 6 6 6 6 6 6 6 6 6 6 6 6 5 5 5 5 5 5 5 5 5 5 5 5 5 5 5 5 5 5 5 5 5 5 5 5
7 7 7 6 6 6 6 6 6 6 6 5 5 5 5 5 5 5 5 5 5 5 5 5 5 5 5 5 5 5 5 5 5 5 4 4 4 4 4 4 4 4 4
6 6 6 6 6 6 6 6 6 5 5 5 5 5 5 5 5 5 5 4 4 4 4 4 4 4 4 4 4 4 4 4 4 4 4 4 4 4 4 4 4 4 4
6 5 6 6 6 6 5 5 5 5 5 5 5 5 5 4 4 4 4 4 4 4 4 4 3 3 4 4 4 4 4 4 4 4 4 3 3 3 3 3 3 3 3
5 5 5 5 5 5 5 5 5 5 5 4 4 4 4 4 4 4 4 4 4 3 3 3 3 3 3 3 3 3 3 3 3 3 3 3 3 3 3 3 3 2 2
5 5 5 4 4 4 4 4 4 4 4 4 4 4 4 4 4 4 3 3 3 3 3 3 3 3 3 3 3 3 3 3 3 3 2 3 2 2 2 2 2 2 2
4 4 4 4 4 4 4 4 4 4 4 4 4 4 4 3 3 3 3 3 3 3 2 2 3 3 3 3 2 2 2 2 2 2 2 2 2 2 2 2 2 2 1
3 3 3 3 3 3 3 3 3 3 3 3 3 3 3 3 3 3 3 2 2 2 2 2 2 2 2 2 2 2 2 2 2 1 1 1 2 2 2 2 1 1 1
3 3 3 3 3 3 3 3 3 3 3 3 3 3 3 3 3 2 2 2 2 2 2 2 2 2 2 1 1 1 1 1 1 1 1 1 1 1 1 1 1 1 1
2 2 2 2 2 2 2 2 2 2 2 2 2 2 2 2 2 2 2 2 2 2 2 1 1 1 1 1 1 0 0 0 0 0 0 -0 0 -0 -0 0 1 0 0
Wind_Speed
4 4 4 6 6 6 6 4 3 3 3 3 3 4 5 6 7 7 7 7 6 6 6 6 6 6 6 6 5 5 5 6 6 6 6 5 5 6 6 6 6 7 8
5 4 4 4 4 5 6 5 3 3 2 3 3 4 4 5 7 8 8 7 7 6 6 6 5 5 5 5 5 6 6 5 5 5 5 5 5 6 6 6 6 6 6
5 5 4 4 4 5 5 4 3 4 3 3 3 4 4 5 6 7 8 8 7 6 6 6 5 5 4 5 5 5 5 5 4 4 4 4 5 4 5 4 5 5 5
6 5 4 4 5 6 4 3 3 3 3 3 2 2 3 4 5 6 7 7 7 6 5 5 5 5 4 4 5 5 5 4 4 4 3 2 2 3 3 3 3 4 4
7 5 3 4 6 4 3 3 2 3 3 3 3 2 3 3 3 5 5 6 7 7 7 6 6 5 5 4 3 4 4 4 4 3 2 2 1 1 1 2 2 2 2
7 5 4 4 5 4 3 3 3 3 3 4 3 3 2 2 2 3 3 5 6 6 7 6 6 5 4 3 2 2 2 2 1 1 1 0 0 1 1 1 1 1 1
6 6 4 4 4 4 4 4 3 4 3 3 3 2 2 2 2 2 2 3 4 4 5 6 5 5 4 3 2 1 1 0 0 0 0 1 2 2 2 1 1 1 2
6 6 6 5 5 4 4 5 5 3 3 3 3 3 1 1 1 0 1 1 2 3 3 4 4 5 5 4 3 2 1 1 1 1 2 2 3 3 3 3 3 2 2
6 6 6 5 5 5 5 5 6 5 4 3 2 3 3 3 1 1 1 1 1 1 1 3 3 4 5 5 4 2 1 1 1 2 3 3 4 4 4 5 4 4 3
6 7 6 6 6 5 5 6 5 4 6 5 2 1 1 2 3 2 1 2 2 2 2 2 3 4 5 5 5 3 3 2 2 3 4 4 4 4 5 5 5 5 5
5 6 7 6 6 5 6 5 5 5 5 5 4 2 1 1 1 2 2 2 2 2 2 3 4 4 5 5 6 5 5 4 4 5 5 5 5 5 5 6 6 6 6
4 5 6 6 6 5 6 6 6 6 5 5 4 3 3 2 2 2 2 2 2 3 3 3 3 5 6 6 6 6 7 6 6 6 6 6 6 6 6 7 7 7 6
4 6 5 5 5 5 6 6 6 6 6 6 6 4 4 3 2 2 2 2 1 1 2 3 4 6 6 7 6 8 8 8 7 7 7 6 6 6 7 8 9 8 7
5 6 6 5 6 6 6 5 5 5 5 6 6 5 4 3 3 3 3 3 1 1 2 3 2 5 6 7 7 9 8 9 8 8 8 7 7 6 7 8 8 7 8
4 6 6 6 6 7 7 6 5 5 5 5 5 5 4 3 3 3 2 3 4 3 4 3 2 3 5 7 8 8 8 9 10 9 9 8 7 7 7 8 7 7 8
5 6 7 6 6 6 7 6 5 6 6 5 5 5 5 3 3 3 3 2 2 3 3 3 3 3 4 5 7 7 8 9 10 10 9 8 8 7 8 8 8 8 8
6 6 7 7 7 7 7 7 7 7 7 6 5 6 5 4 4 3 3 3 2 2 2 2 1 1 2 2 3 6 7 7 8 10 10 9 9 9 9 9 9 9 9
5 5 6 6 6 7 7 8 8 8 7 7 7 6 6 5 5 4 4 4 3 3 3 2 2 1 2 3 3 4 5 6 7 9 10 10 10 10 10 10 10 10 10
4 4 5 6 6 6 7 7 7 7 7 7 7 7 7 7 6 5 5 5 4 3 2 2 2 2 2 2 2 2 3 3 5 7 9 9 9 10 10 10 11 11 11
5 5 5 5 6 6 6 6 6 6 6 6 6 7 7 8 7 7 6 5 4 4 3 3 2 2 1 1 1 2 2 2 3 5 7 7 9 9 10 11 11 11 11
5 5 5 5 5 5 5 6 6 6 6 5 5 6 6 8 9 8 6 6 5 4 3 3 2 2 2 1 3 2 3 2 3 3 2 4 6 6 9 11 11 11 11
4 4 5 5 5 4 6 7 6 5 6 6 6 5 5 6 7 8 8 8 8 7 6 5 4 4 5 4 3 3 2 2 3 3 2 4 4 4 7 8 11 11 11
3 4 4 4 4 4 5 6 6 5 5 6 6 5 5 5 7 5 6 7 7 8 8 7 6 6 6 5 5 4 4 3 4 3 2 4 3 5 6 9 11 12 11
2 2 3 3 4 4 5 5 6 5 5 5 6 6 6 6 6 6 5 5 5 6 7 6 6 6 5 4 5 5 5 3 2 2 2 3 3 4 5 8 11 11 11
2 2 2 2 3 4 5 5 5 4 4 5 5 6 6 6 8 7 6 5 5 4 5 6 6 5 5 6 5 2 2 2 3 3 1 2 2 3 3 4 8 9 10
2 2 2 2 3 3 5 5 5 3 3 3 3 4 6 6 7 8 7 6 6 4 3 2 3 3 4 5 6 5 4 3 2 3 2 1 2 1 3 3 3 6 7
Wind_Direction
150 147 144 146 155 156 151 157 158 149 146 150 150 132 116 111 111 105 102 109 113 120 123 121 121 120 115 111 102 93 96 100 104 100 96 84 90 90 88 82 76 70 66
146 144 143 144 145 149 152 155 146 129 118 108 99 100 105 116 119 120 113 106 106 112 118 121 123 120 118 112 101 96 93 102 102 102 97 93 86 96 92 83 73 69 64
147 145 143 137 138 146 142 134 128 117 103 92 85 80 81 94 108 115 119 116 112 110 115 118 120 117 117 118 110 103 95 92 101 106 102 100 88 90 94 85 76 69 60
150 137 141 146 145 145 139 128 130 116 110 99 82 71 75 84 100 106 110 118 119 114 116 123 118 116 111 114 107 100 90 84 88 97 103 100 102 81 99 93 81 71 58
156 141 140 140 142 138 136 143 131 131 124 111 96 75 64 65 85 100 105 114 122 121 117 119 121 119 118 111 104 103 101 84 91 90 86 86 91 78 81 114 98 74 52
159 145 139 136 137 141 147 145 145 134 131 125 106 76 60 66 73 90 112 115 116 120 127 129 128 126 124 121 120 108 106 82 92 105 86 22 290 272 0 141 128 44 16
164 153 147 145 144 155 161 152 139 135 131 122 103 79 30 36 73 86 94 103 101 108 123 132 137 134 132 135 148 153 147 126 33 45 255 299 284 278 270 255 227 313 328
171 167 156 162 160 161 164 160 145 145 154 148 138 133 147 334 326 75 95 114 116 120 125 138 137 138 142 145 151 149 173 250 290 270 260 283 288 297 282 279 252 267 288
175 172 167 165 168 167 171 172 164 163 170 183 169 152 157 189 207 237 210 168 164 150 167 162 153 149 148 151 156 159 169 220 276 282 273 269 273 280 280 290 263 264 272
177 177 174 171 173 171 171 178 173 171 170 182 206 223 162 147 158 184 238 214 199 191 197 190 180 171 165 160 165 179 199 217 254 276 284 280 276 278 275 293 275 272 273
176 177 177 175 176 177 179 177 175 177 179 182 184 189 203 109 130 151 202 221 239 228 207 193 188 186 185 179 177 193 207 222 246 261 271 273 279 279 288 287 295 281 277
177 178 180 179 177 178 184 185 184 184 185 184 188 183 177 173 190 169 185 191 217 238 227 205 193 192 195 196 203 207 213 224 238 256 268 274 281 282 288 287 289 289 289
182 186 184 182 181 181 185 183 185 188 188 189 193 197 197 200 178 170 160 178 201 234 222 228 201 196 202 197 206 212 216 223 233 251 261 269 279 279 282 289 288 286 285
184 178 179 183 183 182 185 184 186 191 190 193 198 196 198 200 187 183 176 167 187 246 234 237 222 196 200 203 216 215 218 226 233 246 258 266 272 271 277 285 286 284 286
181 174 177 184 185 182 185 187 191 191 188 196 198 196 197 200 192 193 181 175 176 211 239 233 227 218 208 211 221 216 218 231 238 244 252 261 266 266 272 284 278 281 283
178 178 182 187 185 184 185 186 187 190 190 194 193 193 198 196 190 188 188 199 196 196 228 227 226 226 204 221 231 224 225 234 237 241 247 252 259 262 268 272 271 276 278
180 183 186 186 186 187 187 188 189 190 193 193 194 193 198 193 189 190 186 192 206 191 217 257 250 220 203 223 231 228 231 231 235 242 246 250 255 261 268 271 269 275 277
182 182 184 188 191 192 192 193 194 194 195 197 197 191 197 194 195 192 190 198 208 206 200 228 250 238 238 229 215 219 229 232 238 245 247 250 254 259 266 271 269 273 274
180 180 186 191 193 194 195 195 193 194 197 199 198 196 197 193 200 198 194 200 204 208 203 203 229 250 258 240 212 228 238 239 243 250 249 250 254 260 265 272 274 274 274
182 187 192 192 192 191 193 192 192 193 197 200 201 200 199 199 201 197 200 200 195 200 201 194 215 234 256 259 197 221 254 252 258 255 248 254 257 259 265 272 275 274 275
190 187 187 189 188 190 194 188 189 192 193 199 204 203 204 203 206 202 203 197 192 200 203 205 212 225 233 218 222 226 243 253 259 239 242 250 248 251 260 266 267 270 275
186 179 184 185 187 197 194 195 196 194 194 199 205 203 201 201 205 207 208 205 200 203 206 208 215 221 226 226 219 224 229 242 261 235 228 257 236 244 252 257 267 271 273
184 187 187 182 184 185 186 195 203 198 198 203 202 197 207 208 202 200 208 211 213 218 214 211 215 220 220 216 209 220 225 238 245 233 230 259 241 247 255 264 271 269 271
179 196 193 187 181 188 193 202 207 202 205 210 205 200 202 201 202 198 200 208 218 224 223 221 218 221 222 211 207 216 226 244 281 259 213 246 253 252 270 264 268 267 273
174 184 176 183 191 197 195 200 201 199 207 217 212 203 198 200 204 196 194 205 219 230 233 223 222 225 227 220 210 184 194 218 263 263 233 227 257 280 279 269 263 270 274
186 180 181 191 198 200 200 196 197 199 206 216 216 207 203 205 205 198 199 203 214 221 205 212 222 226 224 218 210 200 196 211 243 249 226 206 252 298 289 276 262 269 274
Height
1527 1529 1531 1532 1534 1536 1538 1539 1541 1543 1545 1546 1548 1549 1550 1551 1552 1553 1553 1554 1555 1555 1556 1556 1557 1557 1558 1559 1559 1560 1560 1560 1561 1561 1562 1562 1562 1562 1563 1563 1563 1563 1562
1526 1528 1529 1531 1533 1535 1536 1538 1540 1542 1544 1545 1546 1548 1549 1550 1551 1552 1552 1553 1554 1554 1555 1555 1556 1556 1557 1557 1558 1558 1559 1560 1560 1560 1561 1561 1561 1562 1562 1562 1562 1562 1562
1523 1525 1528 1529 1531 1533 1535 1537 1539 1540 1542 1544 1545 1546 1548 1548 1549 1550 1551 1552 1552 1553 1554 1554 1555 1555 1556 1556 1557 1557 1558 1558 1559 1559 1559 1560 1560 1561 1561 1561 1561 1561 1561
1521 1523 1525 1527 1529 1531 1533 1535 1537 1538 1540 1542 1543 1545 1546 1547 1548 1549 1549 1550 1551 1551 1552 1553 1554 1554 1555 1555 1556 1556 1556 1557 1557 1557 1558 1558 1559 1559 1560 1560 1560 1560 1560
1518 1521 1522 1524 1527 1529 1530 1533 1535 1537 1538 1540 1541 1543 1544 1545 1546 1547 1548 1549 1549 1550 1551 1552 1552 1553 1553 1554 1554 1555 1555 1555 1556 1556 1556 1557 1557 1557 1558 1558 1558 1558 1558
1516 1518 1520 1522 1524 1526 1528 1530 1532 1534 1536 1537 1539 1541 1542 1544 1545 1545 1546 1547 1548 1548 1549 1550 1550 1551 1551 1552 1552 1553 1553 1554 1554 1554 1554 1555 1555 1556 1556 1556 1556 1556 1556
1513 1515 1517 1519 1521 1523 1525 1527 1530 1531 1533 1535 1537 1539 1540 1542 1543 1544 1544 1545 1546 1546 1547 1548 1548 1549 1549 1550 1550 1551 1551 1551 1552 1552 1552 1552 1553 1553 1553 1554 1554 1554 1554
1510 1511 1514 1516 1518 1520 1522 1524 1526 1528 1530 1532 1534 1535 1537 1540 1540 1541 1542 1543 1543 1544 1545 1546 1546 1547 1547 1548 1548 1548 1548 1549 1549 1549 1550 1550 1550 1550 1551 1551 1551 1551 1551
1506 1508 1510 1513 1515 1517 1519 1521 1523 1525 1526 1529 1531 1532 1533 1534 1536 1538 1538 1539 1540 1541 1542 1543 1544 1544 1545 1545 1546 1546 1546 1546 1546 1547 1547 1547 1547 1547 1548 1548 1548 1548 1548
1502 1505 1507 1509 1511 1513 1515 1518 1520 1522 1523 1525 1527 1528 1530 1531 1533 1533 1535 1536 1537 1538 1539 1540 1541 1541 1542 1542 1542 1543 1543 1543 1543 1543 1543 1544 1544 1544 1544 1544 1545 1545 1545
1498 1501 1503 1505 1507 1509 1512 1514 1516 1518 1519 1521 1523 1525 1526 1528 1529 1530 1530 1532 1533 1535 1536 1537 1537 1538 1538 1539 1539 1540 1540 1540 1540 1540 1540 1540 1540 1541 1540 1541 1541 1541 1541
1494 1497 1499 1501 1503 1505 1508 1510 1512 1514 1516 1518 1519 1521 1523 1524 1524 1526 1527 1528 1529 1531 1532 1533 1533 1534 1535 1535 1536 1536 1536 1536 1537 1537 1537 1537 1537 1537 1537 1537 1537 1537 1537
1490 1492 1494 1497 1499 1501 1503 1505 1508 1510 1511 1513 1515 1517 1519 1520 1522 1523 1524 1525 1526 1527 1528 1529 1530 1531 1531 1531 1532 1532 1532 1533 1533 1533 1533 1533 1533 1533 1533 1533 1533 1532 1533
1485 1488 1490 1492 1494 1496 1499 1501 1503 1505 1507 1509 1511 1513 1515 1516 1518 1520 1521 1522 1522 1523 1524 1525 1526 1526 1527 1527 1527 1528 1528 1529 1529 1529 1529 1529 1529 1529 1529 1528 1528 1528 1528
1481 1484 1486 1488 1490 1492 1494 1496 1498 1500 1503 1505 1507 1509 1510 1512 1514 1516 1517 1519 1520 1519 1520 1521 1521 1522 1523 1523 1523 1523 1523 1524 1524 1524 1524 1525 1525 1524 1524 1524 1523 1523 1523
1477 1479 1481 1483 1485 1487 1489 1491 1493 1495 1498 1500 1502 1504 1506 1508 1510 1511 1513 1514 1515 1516 1515 1516 1517 1518 1518 1519 1519 1519 1519 1519 1519 1520 1520 1520 1520 1520 1520 1519 1519 1518 1518
1473 1475 1476 1478 1480 1482 1484 1486 1488 1491 1493 1495 1497 1499 1501 1503 1505 1507 1508 1510 1511 1512 1511 1512 1513 1514 1514 1514 1513 1514 1514 1515 1515 1515 1515 1515 1515 1515 1514 1514 1514 1513 1513
1468 1470 1472 1474 1475 1477 1479 1481 1483 1485 1487 1490 1492 1494 1496 1498 1500 1501 1503 1505 1506 1507 1508 1507 1508 1509 1509 1509 1509 1509 1509 1510 1510 1510 1510 1510 1510 1510 1509 1509 1508 1508 1507
1464 1465 1467 1469 1471 1473 1475 1477 1478 1480 1482 1485 1487 1489 1491 1493 1494 1496 1498 1499 1501 1502 1503 1503 1503 1504 1504 1504 1504 1504 1505 1505 1505 1505 1505 1505 1505 1505 1504 1504 1503 1503 1502
1460 1461 1463 1465 1466 1468 1470 1472 1474 1476 1478 1480 1482 1484 1486 1488 1489 1491 1493 1494 1496 1497 1498 1498 1499 1499 1499 1499 1499 1500 1500 1500 1500 1501 1501 1501 1500 1500 1499 1499 1498 1497 1496
1456 1457 1459 1461 1462 1464 1466 1468 1470 1472 1474 1476 1478 1479 1481 1483 1485 1486 1488 1489 1491 1492 1493 1493 1494 1494 1494 1494 1495 1495 1495 1495 1495 1496 1495 1496 1495 1494 1494 1493 1493 1492 1491
1452 1454 1455 1457 1458 1460 1462 1464 1466 1468 1470 1471 1473 1474 1476 1478 1480 1482 1483 1485 1486 1487 1488 1488 1488 1489 1489 1490 1490 1491 1490 1490 1489 1491 1490 1490 1490 1489 1489 1488 1487 1486 1485
1449 1450 1451 1453 1454 1456 1458 1460 1462 1464 1465 1466 1468 1469 1471 1473 1475 1477 1478 1480 1481 1482 1483 1484 1484 1484 1485 1485 1486 1486 1486 1486 1485 1485 1485 1483 1484 1483 1483 1482 1482 1481 1479
1445 1446 1448 1449 1450 1452 1454 1455 1457 1459 1461 1462 1463 1465 1466 1468 1470 1471 1473 1474 1475 1476 1477 1478 1479 1480 1481 1481 1481 1482 1481 1481 1480 1480 1480 1478 1477 1477 1477 1476 1476 1475 1474
1442 1443 1444 1445 1447 1448 1450 1452 1454 1455 1456 1457 1459 1460 1461 1463 1465 1467 1468 1469 1470 1471 1472 1473 1474 1474 1475 1476 1476 1476 1476 1475 1474 1474 1474 1474 1472 1470 1470 1470 1469 1469 1468
1438 1440 1441 1442 1443 1444 1446 1448 1449 1450 1451 1452 1454 1455 1457 1458 1460 1461 1462 1463 1464 1465 1467 1467 1468 1469 1470 1470 1471 1471 1471 1471 1469 1469 1469 1469 1467 1466 1463 1463 1463 1463 1462